Flag for Norway Weather past 2 weeks in Stavanger, Norway

Now
41 °F

Passing clouds.


Feels Like: 32 °F
Forecast: 36 / 42 °F
Wind: 20 mph from Northwest

Location: Stavanger / Sola

Current Time: Apr 1, 2015 at 5:16:21 PM

Latest Report: Apr 1, 2015 at 4:50 PM


Visibility: N/A

Pressure: 29.62 "Hg

Humidity: 61%

Dew point: 28 °F

Location of StavangerLocation

Historic Weather in Stavanger — Graph

°F

Stavanger temperature yesterday

Maximum temperature yesterday: 43 °F (at 11:50 AM)
Minimum temperature yesterday: 36 °F (at 12:20 AM)
Average temperature yesterday: 38 °F

Past Weeks' High & Low Weather Summary

 TemperatureHumidityPressure
High54 °F (Mar 18, 11:50 AM)100% (Mar 19, 3:50 AM)30.51 "Hg (Mar 19, 3:50 AM)
Low30 °F (Mar 27, 5:50 AM)31% (Mar 21, 2:50 PM)28.91 "Hg (Mar 31, 6:50 AM)
Average41 °F81%29.81 "Hg
* Reported Mar 17 2:20 PM — Apr 1 3:50 PM, Stavanger, Weather by CustomWeather, © 2015

Note: Actual official high and low records may vary slightly from our data, if they occured in-between our weather recording intervals... More about our weather records

Advertising

Stavanger weather history for previous 24 hours

 ConditionsComfort  
Time TempWeatherWind HumidityBarometerVisibility
3:50 PM
Wed, Apr 1
41 °FPassing clouds.21 mph57%29.62 "HgN/A
3:20 PM41 °FPassing clouds.23 mph57%29.62 "HgN/A
2:50 PM41 °FScattered clouds.24 mph61%29.62 "HgN/A
2:20 PM41 °FScattered clouds.23 mph57%29.59 "HgN/A
1:50 PM41 °FScattered clouds.25 mph61%29.59 "HgN/A
1:20 PM41 °FPassing clouds.26 mph61%29.59 "HgN/A
12:50 PM41 °FScattered clouds.30 mph61%29.59 "HgN/A
12:20 PM41 °FScattered showers. Scattered clouds.28 mph57%29.56 "HgN/A
11:50 AM41 °FScattered showers. Scattered clouds.26 mph57%29.53 "HgN/A
11:20 AM41 °FScattered clouds.32 mph57%29.53 "HgN/A
10:50 AM39 °FPartly sunny.29 mph61%29.53 "HgN/A
10:20 AM39 °FScattered showers. Broken clouds.31 mph65%29.50 "HgN/A
9:50 AM39 °FScattered showers. Broken clouds.31 mph61%29.50 "HgN/A
9:20 AM39 °FPartly sunny.32 mph65%29.47 "HgN/A
8:50 AM39 °FScattered showers. Partly sunny.32 mph70%29.47 "HgN/A
8:20 AM41 °FScattered showers. Broken clouds.33 mph66%29.45 "HgN/A
7:50 AM39 °FRain showers. Partly cloudy.26 mph75%29.42 "HgN/A
7:20 AM37 °FRain showers. Partly cloudy.25 mph87%29.42 "Hg6 mi
6:50 AM36 °FRain showers. Partly cloudy.31 mph93%29.42 "Hg5 mi
6:20 AM36 °FRain showers. Partly cloudy.28 mph93%29.39 "Hg3 mi
5:50 AM39 °FScattered showers. Passing clouds.26 mph87%29.36 "Hg5 mi
4:50 AM37 °FRain showers. Passing clouds.28 mph87%29.36 "Hg6 mi
3:50 AM39 °FPartly cloudy.20 mph81%29.30 "HgN/A
2:50 AM37 °FPassing clouds.8 mph87%29.30 "HgN/A
1:50 AM37 °FPassing clouds.12 mph87%29.27 "HgN/A
12:50 AM39 °FPartly cloudy.16 mph75%29.27 "HgN/A
12:20 AM39 °FPartly cloudy.9 mph81%29.27 "HgN/A
11:50 PM
Tue, Mar 31
39 °FPartly cloudy.8 mph87%29.27 "HgN/A
11:20 PM39 °FPassing clouds.9 mph87%29.24 "HgN/A
10:50 PM37 °FScattered showers. Partly cloudy.6 mph93%29.24 "HgN/A
10:20 PM36 °FScattered showers. Partly cloudy.2 mph93%29.24 "HgN/A
9:50 PM37 °FRain showers. Partly cloudy.13 mph87%29.24 "Hg4 mi
9:20 PM39 °FScattered showers. Partly cloudy.10 mph75%29.24 "HgN/A
8:50 PM37 °FScattered showers. Broken clouds.6 mph87%29.21 "HgN/A
8:20 PM39 °FPassing clouds.3 mph81%29.21 "HgN/A
7:50 PM39 °FBroken clouds.3 mph87%29.21 "HgN/A
7:20 PM39 °FScattered showers. Scattered clouds.9 mph87%29.18 "HgN/A
6:50 PM37 °FRain showers. Partly sunny.22 mph87%29.18 "Hg5 mi
6:20 PM39 °FBroken clouds.3 mph87%29.18 "HgN/A
5:50 PM39 °FBroken clouds.2 mph87%29.15 "HgN/A
5:20 PM37 °FBroken clouds.5 mph93%29.15 "HgN/A
Weather by CustomWeather, © 2015

See weather overviewHow to use our weather pages